Location: Shannon
(40.5500°S, 175.4167°E)
Time: 21:04:05
(UTC+00:00)

Cosmos 2056 Rocket - Pass Details

Date: 17 November 2025
Orbit: 739 x 795 km, 74.0° (Epoch: 14 December)

Event Time Altitude Azimuth Distance (km) Brightness Sun altitude
Rises 15:22:56 0° 209° (SSW) 3,268 6.9 -14.4°
Reaches altitude 10° 15:25:30 10° 218° (SW) 2,343 6.1 -14.1°
Maximum altitude 15:30:13 33° 280° (W) 1,307 4.3 -13.4°
Enters shadow 15:34:07 14° 338° (NNW) 2,078 5.2 -12.8°
